Regional Weather Roundup
Issued by NWS

Home | Current Version | Previous Version | Text Only | Print | Product List | Glossary Off
Versions: 1 2 3 4 5 6 7 8 9 10 11 12 13 14 15 16 17 18 19 20 21 22 23 24 25 26 27 28 29 30 31 32 33 34 35 36 37 38 39 40 41 42 43 44 45 46 47 48 49 50

247
ASUS43 KMPX 170601
RWRMN
WEATHER ROUNDUP FOR MINNESOTA
NATIONAL WEATHER SERVICE TWIN CITIES/CHANHASSEN MN
100 AM CDT THU AUG 17 2017


NOTE: "FAIR" INDICATES FEW OR NO CLOUDS BELOW 12,000 FEET WITH NO
SIGNIFICANT WEATHER AND/OR OBSTRUCTIONS TO VISIBILITY. N/A MEANS
CURRENT SKY AND/OR WEATHER CONDITIONS ARE NOT AVAILABLE.

MNZ060>063-068>070-170700-
   Twin Cities Metro

CITY           SKY/WX    TMP DP  RH WIND       PRES   REMARKS
TWIN CITIES    CLOUDY    72  67  84 S14       29.54F
6HR MIN TEMP:  70; 6HR MAX TEMP:  76; 6HR PCP:  1.44;

ST PAUL        CLOUDY    72  70  93 S12G20    29.56F
CRYSTAL        CLOUDY    69  66  90 E7        29.53F
BLAINE         CLOUDY    70  70 100 E9        29.55F
LAKEVILLE      CLOUDY    66  66 100 SE8       29.55F
EDEN PRAIRIE   CLOUDY    71  67  87 SE12      29.52F
6HR MIN TEMP:  70; 6HR MAX TEMP:  76; 6HR PCP:  1.86;

SOUTH ST PAUL  CLOUDY    69  69 100 S13G24    29.56S
LAKE ELMO      MOCLDY    70  68  94 E6        29.58F
$$
MNZ001>005-007-008-013>017-022>024-027-028-170700-
   Northwest Minnesota

CITY           SKY/WX    TMP DP  RH WIND       PRES   REMARKS
BEMIDJI        LGT RAIN  63  63  99 E5        29.78F
HALLOCK        MOCLDY    57  57 100 NE6       29.85R FOG
ROSEAU           N/A     63  57  82 N6        29.84F HAZE
WARROAD        CLOUDY    63  59  88 E6        29.85S
THIEF RVR FALL CLOUDY    63  63 100 N9        29.82F FOG
CROOKSTON      CLOUDY    63  61  94 N5        29.81F
FOSSTON        DRIZZLE   63  61  94 N6        29.80F
DETROIT LAKES  HVY RAIN  64  63  94 N3        29.78S
MOORHEAD       DRIZZLE   64  63  94 N13       29.78F
PARK RAPIDS    RAIN      64  63  96 NE8       29.75F
MAHNOMEN       DRIZZLE   64  63  99 N8        29.78F
$$
MNZ006-009>011-018-025>026-170700-
   North Central Minnesota

CITY           SKY/WX    TMP DP  RH WIND       PRES   REMARKS
BAUDETTE       HVY RAIN  61  61 100 E8        29.82F FOG
FLAG ISLAND    CLOUDY    63  57  82 CALM      29.84S
INTL FALLS     LGT RAIN  61  58  90 E6        29.83F FOG
6HR MIN TEMP:  61; 6HR MAX TEMP:  62; 6HR PCP:  0.30;

WASKISH        LGT RAIN  63  63 100 E5        29.81S
BIG FORK       RAIN      61  61 100 CALM      29.81F
LONGVILLE      LGT RAIN  61  59  94 NE3       29.76F
GRAND RAPIDS   RAIN      59  58  96 VRB3      29.79F FOG
CRANE LAKE     RAIN      57  57 100 CALM      29.85F
ORR            LGT RAIN  57  55  94 CALM      29.79F
COOK           RAIN      57  57 100 E5        29.83S
WALKER         LGT RAIN  62  61  97 E6        29.77F
$$
MNZ012-019>021-037-170700-
   Northeast Minnesota

CITY           SKY/WX    TMP DP  RH WIND       PRES   REMARKS
DULUTH         HVY RAIN  60  60 100 NE20G25   29.74F FOG
6HR MIN TEMP:  59; 6HR MAX TEMP:  60; 6HR PCP:  0.49;

ELY            RAIN      57  55  94 NE5       29.82F
HIBBING        HVY RAIN  58  57  97 NE5       29.80F FOG
EVELETH        HVY RAIN  58  55  90 NE5       29.81S
DULUTH HARBOR  LGT RAIN  63  61  94 NE29G38   29.73F
GRAND MARAIS     N/A     64  58  80 NE13      29.83F
$$
MNZ029>031-032-039>041-046>048-054>057-064-170700-
   West Central Minnesota

CITY           SKY/WX    TMP DP  RH WIND       PRES   REMARKS
FERGUS FALLS   DRIZZLE   66  66 100 N7        29.74F
WHEATON        LGT RAIN  64  63  94 NW13G20   29.75F
MORRIS         LGT RAIN  66  64  94 N10       29.69F
ALEXANDRIA     LGT RAIN  65  64  97 N12       29.70F
ELBOW LAKE     LGT RAIN  64  64 100 N8        29.72F
WADENA         CLOUDY    63  63 100 N6        29.72F
GLENWOOD       RAIN      64  63  94 N16       29.68S
APPLETON       RAIN      66  64  94 N10       29.68S
BENSON         HVY RAIN  66  64  94 NE9G22    29.68R
ORTONVILLE     LGT RAIN  64  63  94 MISG      29.71S
MADISON        LGT RAIN  68  68 100 N14       29.69S
WILLMAR        CLOUDY    64  64 100 NW24G37   29.59R
$$
MNZ033>034-036-042>043-049>051-058-059-170700-
   Central Minnesota

CITY           SKY/WX    TMP DP  RH WIND       PRES   REMARKS
ST CLOUD       CLOUDY    66  66 100 NE12G21   29.57F
6HR MIN TEMP:  66; 6HR MAX TEMP:  69; 6HR PCP:  0.83;

SAUK CENTRE    HVY RAIN  64  63  97 N14G20    29.66F
PAYNESVILLE    RAIN      65  64  98 N15G23    29.59F
AITKIN         RAIN      61  57  88 N7        29.70F
PINE RIVER     LGT RAIN  61  59  94 NE8G16    29.78F
BRAINERD       LGT RAIN  62  61  96 NE10      29.70F FOG
STAPLES        RAIN      63  63 100 N9        29.71F
LITTLE FALLS   RAIN      63  61  94 NW8       29.65F
LITCHFIELD     RAIN      66  66 100 NE12G18   29.54S
BUFFALO        CLOUDY    66  64  91 NE10      29.54F
MAPLE LAKE     CLOUDY    67  65  94 NE13G18   29.55F
HUTCHINSON     CLOUDY    69  69  98 E6        29.51F
$$
MNZ037-044-045-052-053-170700-
   East Central Minnesota

CITY           SKY/WX    TMP DP  RH WIND       PRES   REMARKS
PRINCETON      HVY RAIN  68  66  94 N6        29.58F
MORA           LGT RAIN  63  61  94 E8        29.64F
RUSH CITY      HVY RAIN  66  65  94 NE10      29.61F
MOOSE LAKE     RAIN      61  59  94 NE12G17   29.68F
HINCKLEY       DRIZZLE   63  63 100 NE9       29.66F
CLOQUET        RAIN      61  57  88 NE7       29.74F
MCGREGOR       CLOUDY    61  59  94 NE8       29.72F
$$
MNZ071>073-080-081-089-090-097-098-170700-
   Southwest Minnesota

CITY           SKY/WX    TMP DP  RH WIND       PRES   REMARKS
MONTEVIDEO     RAIN      64  64 100 N18G26    29.65S
GRANITE FALLS  RAIN      65  65  99 NW18G28   29.63R
CANBY          LGT RAIN  66  65  94 NW7       29.70F
MARSHALL       RAIN      66  64  93 NW20G25   29.66R
REDWOOD FALLS  HVY RAIN  66  64  93 NW33G47   29.52R VSB 1/2
OLIVIA         RAIN      64  63  94 N29G38    29.50S
PIPESTONE      LGT RAIN  66  64  94 NW9       29.73R
WINDOM         LGT RAIN  66  63  88 W17G23    29.64S
WORTHINGTON    CLOUDY    65  63  93 W13       29.71R
JACKSON        CLOUDY    64  63  94 W13       29.67R
TRACY          LGT RAIN  66  65  97 NW17G24   29.65S
SLAYTON        DRIZZLE   64  59  85 NW16      29.70R
$$
MNZ065>067-074>077-082>085-091>093-170700-
   South Central Minnesota

CITY           SKY/WX    TMP DP  RH WIND       PRES   REMARKS
MANKATO        CLOUDY    67  65  93 SW15G24   29.55R
NEW ULM        CLOUDY    66  64  94 SW21G28   29.51S
ST JAMES       PTCLDY    66  63  88 SW15G23   29.59F
FAIRMONT       CLOUDY    67  63  87 W13G21    29.64R
GLENCOE        LGT RAIN  69  69 100 E7        29.50F
FARIBAULT      CLOUDY    68  66  94 S13G20    29.57F
OWATONNA       CLOUDY    68  64  88 S18G24    29.59F
WASECA         CLOUDY    64  61  88 SW15G23   29.60R
ALBERT LEA     CLOUDY    70  68  94 SW9G16    29.64R
$$
MNZ078>079-086>088-094>096-170700-
   Southeast Minnesota

CITY           SKY/WX    TMP DP  RH WIND       PRES   REMARKS
ROCHESTER      CLOUDY    67  65  93 SW15      29.66R
6HR MIN TEMP:  67; 6HR MAX TEMP:  72; 6HR PCP:  0.19;

RED WING       CLEAR     73  70  88 MISG      29.59R
STANTON        CLOUDY    70  65  85 S9        29.56F
DODGE CENTER   CLOUDY    66  64  94 S13       29.63F
WINONA         CLOUDY    73  72  94 CALM      29.64S
AUSTIN         CLOUDY    66  63  88 SW14      29.65S
PRESTON        PTCLDY    69  65  88 SW9       29.68S
$$
ABBREVIATIONS USED IN REMARKS
   TC - TEMPERATURES IN CELSIUS
  WCI - WIND CHILL INDEX
   HX - HEAT INDEX
  VSB - VISIBILITY
$$




USA.gov is the U.S. government's official web portal to all federal, state and local government web resources and services.